Meteo orario Gogolin

Oggi, 12 Aprile, Lunedi

Tempo Temperatura Precipitazioni Vento Pressione Umidità
00:00 +8°C° 0 mm 4 m/s 749 mm Hg 72%
01:00 +8°C° 0 mm 4 m/s 749 mm Hg 72%
02:00 +7°C° 0 mm 4 m/s 749 mm Hg 77%
03:00 +7°C° 0 mm 3 m/s 749 mm Hg 81%
04:00 +7°C° 0 mm 3 m/s 750 mm Hg 86%
05:00 +7°C° 0 mm 3 m/s 750 mm Hg 85%
06:00 +7°C° 0 mm 3 m/s 750 mm Hg 85%
07:00 +8°C° 0 mm 3 m/s 751 mm Hg 84%
08:00 +6°C° 0.1 mm 4 m/s 751 mm Hg 83%
09:00 +6°C° 0.1 mm 5 m/s 752 mm Hg 83%
10:00 +6°C° 0.1 mm 5 m/s 752 mm Hg 82%
11:00 +3°C° 0.3 mm 6 m/s 753 mm Hg 85%
12:00 +2°C° 0.3 mm 6 m/s 753 mm Hg 88%
13:00 +1°C° 0.3 mm 6 m/s 754 mm Hg 90%
14:00 +1°C° 0.4 mm 6 m/s 754 mm Hg 92%
15:00 +1°C° 0.4 mm 5 m/s 755 mm Hg 94%
16:00 0°C° 0.4 mm 4 m/s 755 mm Hg 95%
17:00 0°C° 0.5 mm 4 m/s 756 mm Hg 93%
18:00 +1°C° 0.5 mm 4 m/s 756 mm Hg 90%
19:00 +2°C° 0.5 mm 3 m/s 757 mm Hg 88%
20:00 +2°C° 0 mm 3 m/s 757 mm Hg 87%
21:00 +2°C° 0 mm 2 m/s 757 mm Hg 87%
22:00 +2°C° 0 mm 2 m/s 757 mm Hg 87%
23:00 +2°C° 0 mm 2 m/s 757 mm Hg 85%

Domani, 13 Aprile, Martedi

Tempo Temperatura Precipitazioni Vento Pressione Umidità
00:00 +2°C° 0 mm 2 m/s 758 mm Hg 84%
01:00 +2°C° 0 mm 2 m/s 758 mm Hg 83%
02:00 +2°C° 0 mm 2 m/s 758 mm Hg 83%
03:00 +2°C° 0 mm 2 m/s 758 mm Hg 83%
04:00 +1°C° 0 mm 2 m/s 758 mm Hg 83%
05:00 +2°C° 0 mm 2 m/s 758 mm Hg 80%
06:00 +1°C° 0 mm 3 m/s 758 mm Hg 78%
07:00 +2°C° 0 mm 3 m/s 759 mm Hg 76%
08:00 +3°C° 0 mm 3 m/s 759 mm Hg 67%
09:00 +4°C° 0 mm 3 m/s 759 mm Hg 59%
10:00 +5°C° 0 mm 4 m/s 759 mm Hg 50%
11:00 +6°C° 0 mm 4 m/s 759 mm Hg 46%
12:00 +7°C° 0 mm 4 m/s 759 mm Hg 42%
13:00 +7°C° 0 mm 4 m/s 759 mm Hg 38%
14:00 +8°C° 0 mm 4 m/s 758 mm Hg 38%
15:00 +8°C° 0 mm 4 m/s 758 mm Hg 38%
16:00 +8°C° 0 mm 4 m/s 757 mm Hg 38%
17:00 +7°C° 0 mm 4 m/s 758 mm Hg 46%
18:00 +7°C° 0 mm 3 m/s 758 mm Hg 53%
19:00 +4°C° 0 mm 3 m/s 758 mm Hg 60%
20:00 +4°C° 0 mm 3 m/s 758 mm Hg 63%
21:00 +4°C° 0 mm 2 m/s 758 mm Hg 66%
22:00 +3°C° 0 mm 2 m/s 758 mm Hg 69%
23:00 +3°C° 0 mm 2 m/s 758 mm Hg 70%

Dopodomani, 14 Aprile, Mercoledi

Tempo Temperatura Precipitazioni Vento Pressione Umidità
00:00 +2°C° 0 mm 2 m/s 758 mm Hg 71%
01:00 +1°C° 0 mm 3 m/s 758 mm Hg 72%
02:00 +1°C° 0 mm 3 m/s 757 mm Hg 75%
03:00 0°C° 0 mm 3 m/s 757 mm Hg 78%
04:00 0°C° 0 mm 3 m/s 757 mm Hg 81%
05:00 -1°C° 0 mm 4 m/s 757 mm Hg 81%
06:00 0°C° 0 mm 4 m/s 757 mm Hg 81%
07:00 0°C° 0 mm 5 m/s 757 mm Hg 81%
08:00 +1°C° 0 mm 5 m/s 757 mm Hg 76%
09:00 +2°C° 0 mm 5 m/s 757 mm Hg 72%
10:00 +3°C° 0 mm 5 m/s 757 mm Hg 67%
11:00 +5°C° 0.1 mm 5 m/s 757 mm Hg 63%
12:00 +6°C° 0.1 mm 5 m/s 757 mm Hg 58%
13:00 +6°C° 0.1 mm 5 m/s 757 mm Hg 54%
14:00 +6°C° 0.1 mm 5 m/s 756 mm Hg 56%
15:00 +6°C° 0.1 mm 5 m/s 756 mm Hg 59%
16:00 +6°C° 0.1 mm 5 m/s 756 mm Hg 61%
17:00 +5°C° 0.1 mm 4 m/s 757 mm Hg 65%
18:00 +4°C° 0.1 mm 4 m/s 757 mm Hg 68%
19:00 +3°C° 0.1 mm 3 m/s 757 mm Hg 72%
20:00 +3°C° 0 mm 3 m/s 757 mm Hg 73%
21:00 +2°C° 0 mm 3 m/s 757 mm Hg 74%
22:00 +2°C° 0 mm 3 m/s 757 mm Hg 76%
23:00 +1°C° 0 mm 3 m/s 757 mm Hg 76%

15 Aprile, Giovedi

Tempo Temperatura Precipitazioni Vento Pressione Umidità
00:00 +1°C° 0 mm 3 m/s 757 mm Hg 77%
01:00 0°C° 0 mm 4 m/s 757 mm Hg 77%
02:00 0°C° 0 mm 4 m/s 757 mm Hg 77%
03:00 0°C° 0 mm 4 m/s 757 mm Hg 77%
04:00 0°C° 0 mm 4 m/s 757 mm Hg 77%
05:00 0°C° 0 mm 4 m/s 757 mm Hg 76%
06:00 0°C° 0 mm 5 m/s 757 mm Hg 76%
07:00 +1°C° 0 mm 5 m/s 758 mm Hg 76%
08:00 +2°C° 0 mm 5 m/s 758 mm Hg 70%
09:00 +3°C° 0 mm 5 m/s 757 mm Hg 64%
10:00 +3°C° 0 mm 6 m/s 757 mm Hg 58%
11:00 +3°C° 0 mm 6 m/s 757 mm Hg 60%
12:00 +3°C° 0 mm 6 m/s 757 mm Hg 62%
13:00 +3°C° 0 mm 6 m/s 757 mm Hg 64%
14:00 +3°C° 0.2 mm 6 m/s 757 mm Hg 69%
15:00 +2°C° 0.2 mm 6 m/s 757 mm Hg 75%
16:00 +2°C° 0.2 mm 6 m/s 757 mm Hg 80%
17:00 +1°C° 0.3 mm 6 m/s 757 mm Hg 82%
18:00 +1°C° 0.3 mm 6 m/s 756 mm Hg 85%
19:00 0°C° 0.3 mm 5 m/s 756 mm Hg 87%
20:00 +1°C° 0.4 mm 6 m/s 756 mm Hg 87%
21:00 +1°C° 0.4 mm 6 m/s 756 mm Hg 88%
22:00 +1°C° 0.4 mm 6 m/s 755 mm Hg 88%
23:00 +1°C° 0.3 mm 6 m/s 755 mm Hg 88%

16 Aprile, Venerdi

Tempo Temperatura Precipitazioni Vento Pressione Umidità
00:00 +2°C° 0.3 mm 6 m/s 755 mm Hg 88%
01:00 +2°C° 0.3 mm 6 m/s 755 mm Hg 88%
02:00 +2°C° 0.1 mm 5 m/s 755 mm Hg 89%
03:00 +1°C° 0.1 mm 5 m/s 755 mm Hg 91%
04:00 +1°C° 0.1 mm 5 m/s 755 mm Hg 93%
05:00 +1°C° 0 mm 5 m/s 755 mm Hg 93%
06:00 +1°C° 0 mm 5 m/s 755 mm Hg 93%
07:00 +1°C° 0 mm 5 m/s 755 mm Hg 93%
08:00 +1°C° 0 mm 4 m/s 755 mm Hg 93%
09:00 +1°C° 0 mm 4 m/s 755 mm Hg 94%
10:00 +1°C° 0 mm 4 m/s 755 mm Hg 95%
11:00 +3°C° 0 mm 4 m/s 755 mm Hg 93%
12:00 +3°C° 0 mm 4 m/s 755 mm Hg 91%
13:00 +3°C° 0 mm 4 m/s 756 mm Hg 89%
14:00 +3°C° 0 mm 3 m/s 756 mm Hg 89%
15:00 +4°C° 0 mm 3 m/s 756 mm Hg 88%
16:00 +4°C° 0 mm 3 m/s 756 mm Hg 88%
17:00 +4°C° 0.3 mm 3 m/s 756 mm Hg 90%
18:00 +3°C° 0.3 mm 3 m/s 756 mm Hg 91%
19:00 +3°C° 0.3 mm 3 m/s 756 mm Hg 93%
20:00 +3°C° 0.1 mm 3 m/s 756 mm Hg 94%
21:00 +3°C° 0.1 mm 3 m/s 756 mm Hg 95%
22:00 +3°C° 0.1 mm 3 m/s 756 mm Hg 95%
23:00 +4°C° 0.1 mm 3 m/s 756 mm Hg 96%

17 Aprile, Sabato

Tempo Temperatura Precipitazioni Vento Pressione Umidità
00:00 +4°C° 0.1 mm 3 m/s 756 mm Hg 96%
01:00 +4°C° 0.1 mm 3 m/s 755 mm Hg 96%
02:00 +4°C° 0.1 mm 3 m/s 755 mm Hg 97%
03:00 +5°C° 0.1 mm 3 m/s 755 mm Hg 97%
04:00 +5°C° 0.1 mm 3 m/s 755 mm Hg 97%
05:00 +5°C° 0.1 mm 3 m/s 756 mm Hg 97%
06:00 +5°C° 0.1 mm 3 m/s 756 mm Hg 97%
07:00 +5°C° 0.1 mm 3 m/s 756 mm Hg 96%
08:00 +7°C° 0 mm 3 m/s 756 mm Hg 95%
09:00 +6°C° 0 mm 4 m/s 756 mm Hg 94%
10:00 +7°C° 0 mm 4 m/s 756 mm Hg 93%
11:00 +7°C° 0 mm 4 m/s 756 mm Hg 92%
12:00 +7°C° 0 mm 4 m/s 756 mm Hg 91%
13:00 +8°C° 0 mm 4 m/s 756 mm Hg 91%
14:00 +10°C° 0.1 mm 4 m/s 756 mm Hg 87%
15:00 +11°C° 0.1 mm 4 m/s 756 mm Hg 82%
16:00 +12°C° 0.1 mm 4 m/s 756 mm Hg 78%
17:00 +11°C° 0.1 mm 4 m/s 756 mm Hg 82%
18:00 +10°C° 0.1 mm 4 m/s 756 mm Hg 86%
19:00 +9°C° 0.1 mm 3 m/s 756 mm Hg 90%
20:00 +8°C° 0 mm 4 m/s 756 mm Hg 91%
21:00 +7°C° 0 mm 4 m/s 756 mm Hg 92%
22:00 +7°C° 0 mm 4 m/s 756 mm Hg 92%
23:00 +7°C° 0.4 mm 4 m/s 756 mm Hg 93%
Mostrare altro

Abbiamo bisogno del tuo consenso

Meteoprog e i nostri fornitori di servizi possono memorizzare e accedere a dati personali come cookie, identificatori di dispositivi o altre tecnologie simili sul tuo dispositivo e possono elaborare tali dati per personalizzare i contenuti e gli annunci, nonché fornire funzionalità dei social media e analizzarne il traffico.

  • Archiviare e/o accedere alle informazioni sul tuo dispositivo

    Cookie, identificatori di dispositivi o altre informazioni possono essere memorizzati o resi accessibili sul tuo dispositivo per le finalità sopra indicate.

  • Annunci e contenuti personalizzati, misurazione di annunci e contenuti, approfondimenti sul pubblico e sviluppo di prodotti

    Gli annunci e i contenuti possono essere personalizzati in base a un profilo. È possibile aggiungere più dati per personalizzare meglio annunci e contenuti. È possibile misurare il rendimento degli annunci e dei contenuti. È possibile ricavare informazioni sul pubblico che ha visto gli annunci e i contenuti. Tali dati possono essere utilizzati per sviluppare o migliorare l'esperienza, i sistemi e il software dell'utente.

Cliccando su “Accetto”, acconsenti all'uso di cookie, identificatori di dispositivo, web beacon o altre tecnologie simili. Puoi modificare le impostazioni nel browser del tuo dispositivo.

Per determinati scopi, è possibile fare affidamento su interessi legali, piuttosto che sul consenso. Puoi approfondire questo argomento consultando la nostra Informativa sulla privacy e sui cookie.